Orbital elements:
2017 AK13                                                Earth MOID = 0.0225 AU
Epoch 2017 Feb. 16.0 TT = JDT 2457800.5                 MPC
M  18.54870              (2000.0)            P               Q
n   0.27010727     Peri.  319.22812     +0.34507378     -0.92805122
a   2.3701647      Node   110.16551     +0.89525333     +0.28060945
e   0.6063014      Incl.    8.58714     +0.28186088     +0.24490664
P   3.65           H   23.6           G   0.15           U   7
Residuals in seconds of arc
170107 G96  0.1+  0.3+    170107 Z84  0.1-  0.2-    170108 G96  0.1-  0.2-
170107 G96  0.2+  0.2+    170107 Z84  0.2-  0.1-    170108 G96  0.1-  0.2-
170107 G96  0.0   0.3+    170107 Z84  0.2-  0.3-    170108 G96  0.1-  0.2-
170107 G96  0.6-  1.1-    170107 Z84  0.1-  0.2-    170108 G96  0.0   0.1-
170107 I52  0.1-  0.0     170107 Z84  0.2-  0.2-    170108 H21  0.3+  0.2+
170107 I52  0.0   0.1+    170107 595  0.0   0.5-    170108 691  0.2-  0.4+
170107 I52  0.0   0.3+    170107 595  0.5-  0.6-    170108 691  0.1-  0.3+
170107 I52  0.1+  0.3+    170107 595  0.1-  0.4-    170108 691  0.1-  0.3+
170107 C44  0.7+  0.4-    170108 204  0.1-  0.0     170108 587  0.8-  0.8-
170107 C44  0.1-  0.7+    170108 I93  0.1-  0.2-    170108 587  0.7-  0.1-
170107 C44  0.1-  0.0     170108 204  0.2-  0.1-    170108 587  0.8-  0.2-
170107 C44  0.0   0.3+    170108 I93  0.0   0.2-    170108 B04  0.3+  0.5-
170107 C44  0.3+  0.4-    170108 204  0.1-  0.2-    170108 B04  0.3+  0.3+
170107 C44  0.1+  0.5+    170108 I93  0.1-  0.2-    170108 B04  0.2-  0.3+
170107 958  1.3+  0.7+    170108 204  0.2-  0.2-    170108 B04  0.4+  0.9-
170107 Z84  0.1-  0.0     170108 204  0.1-  0.1-    170108 B04  0.2-  0.4-
170107 Z84  0.1-  0.2-    170108 H21  0.3+  0.4+    170108 B04  0.1+  0.1-
170107 Z84  0.2-  0.1-    170108 H21  0.2+  0.2+    170108 K51  0.0   0.4+
170107 Z84  0.1-  0.2-    170108 H21  0.2+  0.3+    170108 K51  0.6+  0.2+
170107 Z84  0.1-  0.2-    170108 H21  0.3+  0.2+    170108 K51  0.2+  0.2-
170107 Z84  0.2-  0.1-    170108 H21  0.3+  0.4+    170108 160  2.0-  1.8+
170107 Z84  0.1-  0.1-    170108 H21  0.4+  0.4+    170108 160  0.0   0.8+
170107 Z84  0.1-  0.1-    170108 I52  0.2-  0.5-    170108 160  0.4+  0.2+
170107 958  0.8+  1.2+    170108 I52  0.2-  0.5-    170108 C77  1.1+  0.3-
170107 Z84  0.0   0.1-    170108 I52  0.3-  0.3-    170108 C77  0.4+  0.2-
170107 958  0.6+  0.8+    170108 H21  0.3+  0.3+    170108 C77  0.4+  1.0-
170107 Z84  0.1-  0.3-    170108 I52  0.1-  0.3-

Ephemeris:
2017 AK13                a,e,i = 2.37, 0.61, 9                   q = 0.9331
Date    TT    R. A. (2000) Decl.     Delta      r     Elong.  Phase     V
2016 12 09    22 25 16.2 -45 18 30   0.1696  0.9329    67.4   103.0    23.4
...
2016 12 24    23 26 46.0 -50 40 24   0.07487 0.9548    65.3   110.6    22.1
...
2017 01 01    03 07 29.1 -53 34 07   0.02924 0.9838    90.1    88.2    19.0
...
2017 01 07    07 53 46.1 +04 52 55   0.03095 1.0124   159.8    19.6    17.1
2017 01 08    08 11 39.0 +11 17 02   0.03590 1.0177   162.9    16.5    17.3
2017 01 09    08 25 29.3 +16 01 59   0.04136 1.0231   163.6    15.8    17.6
...
2017 01 15    09 07 22.9 +28 50 21   0.07883 1.0581   160.2    18.3    19.2
...
2017 01 23    09 24 59.0 +33 39 48   0.1338  1.1109   159.9    17.7    20.4
...
2017 02 07    09 31 57.3 +35 28 08   0.2492  1.2232   159.8    16.2    21.9

A. U. Tomatic                (C) Copyright 2017 MPC           M.P.E.C. 2017-A61




More information about the Iaude mailing list